Weather History for KGCC - September, 2014

Change the Weather History Date:

Saturday, September 6, 2014

  Actual Average Record
Temperature  
Mean Temperature 61 °F 63 °F  
Max Temperature 77 °F 79 °F 102 °F (1978)
Min Temperature 45 °F 47 °F 31 °F (1929)
Degree Days  
Heating Degree Days 4 5  
Month to date heating degree days 39 24  
Since 1 July heating degree days 88 81  
Cooling Degree Days 0 3  
Month to date cooling degree days 5 18  
Year to date cooling degree days 360 478  
Growing Degree Days 12 (Base 50)    
Moisture  
Dew Point 43 °F    
Average Humidity 59    
Maximum Humidity 93    
Minimum Humidity 25    
Precipitation  
Precipitation 0.00 in 0.04 in 0.87 in (1946)
Month to date precipitation 0.02 0.22  
Year to date precipitation 15.28 10.70  
Sea Level Pressure  
Sea Level Pressure 30.15 in    
Wind  
Wind Speed 9 mph (SSE)    
Max Wind Speed 21 mph    
Max Gust Speed 24 mph    
Visibility 10 miles    
Events      
T = Trace of Precipitation, MM = Missing Value Source: NWS Daily Summary

Daily Weather History Graph

Daily Weather History Graph

Search for Another Location

Airport or City:

Trip Planner

Search our weather history database for the weather conditions in past years. The results will help you decide how hot, cold, wet, or windy it might be!

Date:

Astronomy

Sep. 06, 2014 Rise Set
Actual Time 6:30 AM MDT 7:29 PM MDT
Civil Twilight 6:01 AM MDT 7:58 PM MDT
Nautical Twilight 5:25 AM MDT 8:34 PM MDT
Astronomical Twilight 4:48 AM MDT 9:10 PM MDT
Moon 5:50 PM MDT (9/6) 3:31 AM MDT (9/6)
Length of Visible Light 13h 57m
Length of Day
12h 58m
Waxing Gibbous, 92% of the Moon is Illuminated
Sep 6
Waxing Gibbous
Sep 8
Full
Sep 15
Last Quarter
Sep 24
New
Oct 1
First Quarter

Hourly Weather History & Observations

Time (MDT) Temp. Windchill Dew Point Humidity Pressure Visibility Wind Dir Wind Speed Gust Speed Precip Events Conditions
12:53 AM 52.0 °F - 46.0 °F 80% 30.22 in 10.0 mi South 10.4 mph - N/A   Clear
2:53 AM 50.0 °F - 46.4 °F 87% 30.28 in 10.0 mi South 11.5 mph - N/A   Clear
3:53 AM 50.0 °F - 46.0 °F 86% 30.21 in 10.0 mi South 11.5 mph - N/A   Clear
4:53 AM 51.1 °F - 46.0 °F 83% 30.20 in 10.0 mi South 10.4 mph - N/A   Clear
5:53 AM 46.4 °F 41.5 °F 44.6 °F 93% 30.27 in 10.0 mi South 10.4 mph - N/A   Clear
6:53 AM 46.9 °F - 44.1 °F 90% 30.24 in 10.0 mi SE 4.6 mph - N/A   Clear
7:53 AM 54.0 °F - 48.0 °F 80% 30.23 in 10.0 mi South 12.7 mph - N/A   Clear
8:53 AM 60.1 °F - 48.9 °F 67% 30.22 in 10.0 mi South 17.3 mph - N/A   Clear
9:53 AM 64.9 °F - 48.9 °F 56% 30.20 in 10.0 mi South 17.3 mph - N/A   Clear
10:53 AM 69.1 °F - 46.0 °F 44% 30.19 in 10.0 mi SSW 11.5 mph - N/A   Clear
11:53 AM 72.0 °F - 39.9 °F 31% 30.17 in 10.0 mi Variable 6.9 mph - N/A   Clear
12:53 PM 73.0 °F - 39.0 °F 29% 30.14 in 10.0 mi ESE 5.8 mph 17.3 mph N/A   Clear
1:53 PM 73.9 °F - 39.9 °F 29% 30.13 in 10.0 mi Calm Calm - N/A   Clear
2:53 PM 75.9 °F - 39.9 °F 27% 30.11 in 10.0 mi SE 8.1 mph - N/A   Clear
3:53 PM 77.0 °F - 39.9 °F 26% 30.09 in 10.0 mi SE 5.8 mph - N/A   Clear
4:53 PM 75.9 °F - 37.9 °F 25% 30.07 in 10.0 mi Variable 3.5 mph - N/A   Clear
5:53 PM 75.9 °F - 37.0 °F 24% 30.07 in 10.0 mi ESE 4.6 mph - N/A   Clear
6:53 PM 69.1 °F - 44.1 °F 40% 30.08 in 10.0 mi SSE 6.9 mph - N/A   Clear
7:53 PM 57.0 °F - 42.1 °F 57% 30.08 in 10.0 mi Calm Calm - N/A   Clear
8:53 PM 57.0 °F - 39.9 °F 53% 30.06 in 10.0 mi SW 4.6 mph - N/A   Clear
9:53 PM 55.9 °F - 39.0 °F 53% 30.06 in 10.0 mi South 13.8 mph - N/A   Clear
10:53 PM 53.1 °F - 37.9 °F 57% 30.04 in 10.0 mi South 10.4 mph - N/A   Clear
11:53 PM 55.9 °F - 39.0 °F 53% 30.01 in 10.0 mi South 6.9 mph - N/A   Clear